Chetumal, Mexico

3:04 PM on November 19, 2017 (GMT +0000)
Chetumal International

Weather History for MMCM - October, 2013

Change the Weather History Date:

Sunday, October 20, 2013

  Actual Average Record
Temperature  
Mean Temperature 85 °F -  
Max Temperature 94 °F 83 °F 94 °F (2012)
Min Temperature 76 °F 72 °F 68 °F (1997)
Cooling Degree Days 20    
Growing Degree Days 35 (Base 50)    
Moisture  
Dew Point 77 °F    
Average Humidity 76    
Maximum Humidity 86    
Minimum Humidity 49    
Precipitation  
Precipitation 0.00 in - - ()
Sea Level Pressure  
Sea Level Pressure 29.89 in    
Wind  
Wind Speed 3 mph ()    
Max Wind Speed 9 mph    
Max Gust Speed -    
Visibility 6.6 miles    
Events      
Averages and records for this station are not official NWS values.
T = Trace of Precipitation, MM = Missing Value Source: Averaged Metar Reports

Daily Weather History Graph

Daily Weather History Graph

Search for Another Location

Airport or City:

Trip Planner

Search our weather history database for the weather conditions in past years. The results will help you decide how hot, cold, wet, or windy it might be!

Date:

Astronomy

Oct. 20, 2013 Rise Set
Actual Time 6:48 AM CDT 6:26 PM CDT
Civil Twilight 6:26 AM CDT 6:49 PM CDT
Nautical Twilight 6:00 AM CDT 7:14 PM CDT
Astronomical Twilight 5:35 AM CDT 7:40 PM CDT
Moon 7:51 PM CDT (10/20) 8:12 AM CDT (10/20)
Length of Visible Light 12h 22m
Length of Day
11h 38m
Full, 97% of the Moon is Illuminated
Oct 20
Full
Oct 26
Last Quarter
Nov 3
New
Nov 9
First Quarter
Nov 17
Full

Hourly Weather History & Observations

Time (CDT) Temp. Heat Index Dew Point Humidity Pressure Visibility Wind Dir Wind Speed Gust Speed Precip Events Conditions
12:50 AM 82 °F - 77 °F 81% 29.91 in 5 mi East 4.5 mph - -   Scattered Clouds
6:50 AM 81 °F - 78 °F 86% 29.91 in 6 mi East 2.2 mph - -   Mostly Cloudy
7:00 AM 80.6 °F 85.4 °F 73.4 °F 79% 29.90 in 7.0 mi Calm Calm - N/A   Mostly Cloudy
7:40 AM 80.6 °F 85.4 °F 73.4 °F 79% 29.90 in 7.0 mi Calm Calm - N/A   Mostly Cloudy
8:43 AM 80.6 °F 85.4 °F 73.4 °F 79% 29.91 in 7.0 mi Calm Calm - N/A   Mostly Cloudy
9:40 AM 82.4 °F 89.5 °F 75.2 °F 79% 29.94 in 7.0 mi Calm Calm - N/A   Mostly Cloudy
9:50 AM 84 °F - 77 °F 75% 29.95 in 6 mi West 2.2 mph - -   Mostly Cloudy
10:40 AM 87.8 °F 104.9 °F 80.6 °F 79% 29.93 in 7.0 mi Calm Calm - N/A   Mostly Cloudy
11:40 AM 87.8 °F 104.9 °F 80.6 °F 79% 29.92 in 7.0 mi Calm Calm - N/A   Mostly Cloudy
12:40 PM 87.8 °F 104.9 °F 80.6 °F 79% 29.89 in 7.0 mi East 5.8 mph - N/A   Mostly Cloudy
12:50 PM 93 °F - 76 °F 49% 29.90 in 6 mi ESE 6.7 mph - -   Partly Cloudy
1:40 PM 86.0 °F 99.3 °F 78.8 °F 79% 29.85 in 7.0 mi ESE 5.8 mph - N/A   Mostly Cloudy
2:43 PM 87.8 °F 104.9 °F 80.6 °F 79% 29.83 in 7.0 mi East 6.9 mph - N/A   Mostly Cloudy
3:45 PM 92 °F - 77 °F 53% 29.83 in 6 mi ESE 6.7 mph - -   Partly Cloudy
3:45 PM 87.8 °F 104.9 °F 80.6 °F 79% 29.82 in 7.0 mi East 6.9 mph - N/A   Mostly Cloudy
4:41 PM 87.8 °F 104.9 °F 80.6 °F 79% 29.82 in 7.0 mi East 6.9 mph - N/A   Mostly Cloudy
5:41 PM 86.0 °F 99.3 °F 78.8 °F 79% 29.83 in 7.0 mi ENE 9.2 mph - N/A   Mostly Cloudy
6:42 PM 82.4 °F 89.5 °F 75.2 °F 79% 29.87 in 7.0 mi NNE 9.2 mph - N/A   Mostly Cloudy
6:45 PM 84 °F - 76 °F 71% 29.87 in 5 mi North 4.5 mph - -   Mostly Cloudy
7:43 PM 82.4 °F 89.5 °F 75.2 °F 79% 29.87 in 7.0 mi NE 6.9 mph - N/A   Scattered Clouds
8:40 PM 84.2 °F 92.3 °F 75.2 °F 74% 29.90 in 7.0 mi NE 6.9 mph - N/A   Scattered Clouds
9:40 PM 84.2 °F 92.3 °F 75.2 °F 74% 29.92 in 7.0 mi NE 6.9 mph - N/A   Scattered Clouds
9:50 PM 83 °F - 76 °F 75% 29.93 in 5 mi ENE 4.5 mph - -   Partly Cloudy